STARLINK-35336, 66006

Orbit data source: Space-Track

STARLINK-35336, 66006 is a payload satellite owned by SpaceX/Seattle (US) in LEO that was launched on Thu, 16 Oct 2025 UTC via an FALCON 9 launch vehicle from the Air Force Eastern Test Range (AFETR). Payload-class satellites include a variety of spacecraft equipped with specific instruments for various scientific and technological missions. These include communications satellites like Starlink; space stations such as the ISS; scientific satellites like the Hubble; Earth observation satellites from companies like Planet Labs, Umbra, and HawkEye 360; GPS; miniature CubeSats for education and research; and military/defense satellites.

Loading next visibility...
Identifier
66006, 2025-232B
Orbit
LEO
Country
Flag of USUS
Related business
Manufacturer
SpaceX/Seattle
Mission
Operational Commercial Communications
Bus & Motor
STARLINK V2MO, Unknown motor
Mass
575 kg wet, ~530 kg dry
Launch date (UTC)
2025-10-16 (8 months ago)
Launch vehicle
FALCON 9
Launch site
Air Force Eastern Test Range (AFETR)
Object type
Payload
Rocket body
Debris
Shape & HBR
Box + 2 Pan, 17.7 m
Radar Cross Section
36.964 m², Large (>1 m²)

Expand to show TLE details & history
Last TLE update: 1 day ago

TLE from 1 day ago
0 STARLINK-35336
1 66006U 25232B   26170.96404419  .00024252  00000-0  72706-3 0  9995
2 66006  53.1613 348.1867 0001104  75.7998 284.3127 15.34379951 39092
Epoch: 2026-06-19T23:08Z
TLE epoch observation values (Epoch: 2026-06-19T23:08:13.418Z)
Latitude
-0.00001°
Longitude
92.94531°
Altitude
463.478 km
Speed
7.636 km/s
True Right ascension
23h 12m 44s
True Declination
0° 00' 00"
Sunlit
Object was in daylight at epoch
Visualization orbit readout
Latitude
Unknown
Longitude
Unknown
Altitude
Unknown
Speed
Unknown
Apparent Right ascension
Unknown
Apparent Declination
Unknown
Sunlit
N/A
Visualization observer readout
Local Sidereal Time
10:19:02
Azimuth
Unknown
Elevation
Unknown
Doppler factor
Unknown
Orbital elements
Apogee altitude
463.775 km
Perigee altitude
462.264 km
Semi-major axis
6,841.157 km
Eccentricity
0.00011
Inclination
53.1613°
RAAN
348.1867°
Arg. of periapsis
75.7998°
True anomaly
284.30044°
Mean anomaly
284.3127°
Eccentric anomaly
284.30657°
Mean motion
3.83574 °/min
Orbital period
93.85 mins
BSTAR
0.00072706
Loading maneuver chart data...
Computing Atmospheric mass density...
Loading historical data...
Loading historical data...
Loading historical data...
Loading historical data...
Loading historical data...
Loading historical data...
Loading historical data...

Documentation

Showing up to 5 results
|